Vertical_Velocity
-2 1 3 1 1 -2 1 -3 -1 -2 -3 1 -2 1 5 3 1 -0 -5 -1 -5 2 -3 -1 -1 -1 1 1 -0 0 -0 1 0 -1 -3 -2 -1 -1 -0 -2 -0 0 1 1 1 1 -1 -0 1
-5 -2 -3 -1 -3 -1 4 2 8 9 -1 4 2 1 3 2 -2 -1 -6 -4 2 2 -2 -2 -1 -1 0 0 -1 -0 -0 0 1 0 -1 -1 -2 0 -0 -1 2 2 1 -1 -2 -1 -1 -1 0
-2 4 1 2 2 1 1 4 -6 0 0 -2 10 3 5 -2 -3 2 -4 -2 -0 0 1 -0 -1 0 1 0 -1 -1 1 2 2 0 -2 -0 -1 -1 -0 2 1 2 2 1 -2 -1 -1 -1 -1
0 -1 0 4 -11 9 10 6 5 -5 1 -1 3 1 -1 -3 4 2 -5 -1 -2 1 0 1 -1 -2 -0 1 0 1 0 1 1 -0 -2 0 0 0 2 1 -1 0 2 1 0 -1 -2 -2 -1
3 5 4 -2 1 -27 -3 -4 8 5 -0 1 7 -0 -0 -2 -1 1 1 -3 -1 -1 -1 -1 0 -1 -1 1 0 1 1 1 1 0 -2 -0 -0 3 1 0 -1 -0 4 -0 -1 -2 -3 -4 -1
-11 -9 5 -3 -0 5 -11 -1 14 2 3 0 3 -1 -0 -3 -0 -3 0 -0 -3 2 -1 -1 -1 -1 -1 1 -0 1 2 1 1 -1 -1 -2 -0 1 1 1 -0 0 1 1 2 1 1 -0 -0
-4 -0 2 7 6 6 -1 -4 -13 -7 -4 4 1 4 -0 -7 2 6 0 -0 -1 -1 2 0 -1 0 -0 -1 0 0 1 0 1 -1 -1 0 -1 -0 0 2 -1 -0 -1 -1 1 -1 0 1 0
-1 -5 -5 -20 0 -20 -1 25 -0 0 -4 1 4 3 -2 -2 -2 2 1 0 -4 -0 1 2 1 1 0 -0 -0 1 0 -0 0 -1 -1 1 -1 0 -0 -1 0 0 -1 -0 -1 -1 1 -2 -1
2 -4 5 6 -1 -1 2 -1 7 5 -0 2 -0 3 6 -1 -4 -1 -0 -1 -4 -4 0 0 -0 2 1 -0 -0 -1 -1 -0 -0 0 -0 -1 -0 -0 0 0 -1 1 0 -0 -1 -1 -1 2 1
4 3 0 -8 -0 3 -7 5 1 -4 -3 -14 1 4 -0 2 -3 1 2 -3 -5 -3 -0 -1 0 0 2 -1 0 0 0 -0 -0 2 0 5 0 -1 -0 -1 0 0 -1 1 -1 -3 0 2 3
1 -2 5 9 -0 5 -17 11 0 5 7 2 6 2 -1 5 -1 4 1 5 4 -0 -2 -0 -1 -0 1 2 1 1 -0 -1 -0 1 2 -5 -1 -1 1 0 -1 1 0 -0 1 -2 -2 1 3
-12 8 9 2 -6 5 3 4 4 -3 -1 -3 -4 -4 -2 -1 1 2 2 -0 3 1 -0 -1 -1 -1 2 -0 1 -0 0 -0 0 0 2 3 1 0 2 0 -1 -2 0 1 -1 -2 -0 -1 1
1 -5 52 6 -37 -14 0 0 -2 -4 -1 -6 -6 -8 -7 -7 -8 3 9 4 1 -3 -1 1 -1 -1 0 2 2 1 -1 0 -1 -1 -1 -1 -1 1 1 -1 1 -2 -2 -0 1 -1 -1 -1 -1
-6 2 21 -15 19 10 -2 1 1 -4 2 2 2 -4 -4 -3 -6 -5 -3 0 1 1 2 -0 2 -1 -1 -0 1 2 0 -0 -2 -1 -0 -1 1 1 2 -0 1 0 0 1 -0 -2 0 1 2
-5 -9 12 -1 -15 -18 3 -8 -4 -2 5 0 -2 -5 -3 4 -3 -9 -6 3 10 3 -1 -3 -0 0 1 1 0 2 3 -1 -0 -1 0 -1 -1 0 1 3 3 2 -1 -0 -2 -1 -0 1 2
2 7 6 4 4 5 6 -10 1 4 9 -2 2 0 -6 3 1 -6 -6 0 4 11 4 2 2 4 -0 1 -1 1 5 -0 -1 -1 0 1 -1 2 1 0 1 0 6 5 0 1 5 11 2
2 1 -6 23 7 2 -6 -10 -8 6 6 3 1 -1 0 -3 -1 -3 0 -7 4 5 8 -18 -5 11 10 0 2 2 3 0 2 2 2 1 -0 4 -0 1 1 2 7 -1 1 1 6 2 -3
-2 -8 -3 -5 5 14 31 -18 1 2 -1 7 -6 -1 3 1 -2 -4 -1 -0 -1 5 6 10 2 4 5 -0 -0 -1 0 -0 -1 4 2 3 -1 -0 -0 -1 0 -1 4 1 1 2 1 3 3
0 1 -2 1 8 13 3 4 -2 3 -3 3 -6 -1 3 2 13 4 -1 -4 1 4 -2 3 -1 0 4 2 1 0 2 3 2 2 -0 1 -1 1 1 -1 -1 -1 -2 -2 -1 4 13 6 1
2 -1 -7 -10 4 11 -0 -14 16 -4 -14 0 -0 -1 -3 7 5 1 2 -5 -2 -2 7 -3 4 1 1 -1 -1 -1 0 1 2 -1 1 1 -1 0 2 5 -3 -1 1 -1 -2 -0 -1 9 -0
6 -5 2 3 -4 7 2 -6 -2 -0 -10 -2 -2 6 0 4 6 0 3 -2 2 -0 0 5 7 3 2 2 2 2 -1 -2 -1 2 2 2 1 7 1 2 1 -1 -1 1 -0 -1 0 -2 -1
-12 23 4 0 3 -2 2 -15 -3 5 2 -13 5 2 0 2 12 -0 2 -1 -5 4 3 -0 -2 -2 1 -0 2 -1 1 -3 0 1 2 1 -0 1 -0 1 1 1 1 2 1 0 2 1 1
-19 5 5 0 3 6 -0 3 1 1 -1 0 -5 -6 -7 3 8 5 -5 3 -3 -4 1 1 -1 -3 -2 -3 5 1 1 2 -0 -3 -0 0 -1 -1 0 -0 -2 -1 1 3 1 1 9 1 1
3 -9 -1 -1 5 0 3 2 -16 2 -6 -9 -11 -15 -9 4 3 3 -6 -5 -4 -4 -1 -3 1 1 -4 -0 3 2 0 4 4 -1 -2 0 1 3 2 1 1 -0 -1 -0 -2 1 -0 1 3
3 2 -6 -6 -4 -8 1 -4 -5 -11 6 2 -11 -2 6 0 -10 7 -8 -15 -7 -4 -1 -2 -0 -1 -1 -3 -2 -2 3 -1 6 2 0 -1 0 2 5 3 0 -0 5 6 3 -3 -3 -3 7
5 5 -2 -3 -2 -6 3 -2 -29 -13 12 -6 -1 4 3 1 -4 1 -3 -9 -5 0 -3 -1 -1 -3 -2 2 4 -1 4 4 -0 2 2 2 1 1 2 -0 -1 14 6 12 8 8 2 3 -0
-2 -2 3 -0 2 1 -3 -2 -12 -7 -1 -0 3 0 6 0 1 -7 -1 -6 -4 -2 0 2 0 1 1 3 -4 4 7 6 6 2 -4 -1 -1 0 -2 8 -2 11 10 15 9 9 6 -1 -1
4 1 -1 1 -3 -1 -2 -2 -11 -6 4 12 5 -8 -13 -4 -3 -4 -11 -3 5 5 5 1 -1 -2 2 1 13 13 5 -3 4 4 2 2 2 1 1 3 -2 8 12 13 9 6 1 0 3
3 1 2 5 1 -8 -2 -11 -10 -5 1 2 -3 10 1 11 -7 -6 -2 -4 1 11 5 6 1 -2 2 3 2 -2 2 1 0 1 2 0 0 -0 13 15 -13 2 -1 0 -0 -2 -1 0 -1
3 3 16 9 -3 2 1 -26 5 -8 1 1 -6 -10 -3 2 4 -12 3 -5 -0 2 4 3 -4 -1 1 2 1 3 3 4 0 -0 -0 -1 -2 -0 -1 6 2 -2 -2 -0 -1 -2 -0 -0 2
Height
3157 3158 3160 3159 3161 3157 3157 3159 3163 3163 3163 3163 3164 3165 3166 3164 3165 3168 3165 3167 3169 3172 3173 3175 3177 3179 3181 3183 3185 3186 3187 3188 3187 3187 3188 3188 3189 3190 3191 3192 3192 3193 3192 3193 3196 3198 3199 3199 3199
3158 3160 3162 3160 3162 3160 3162 3163 3164 3164 3164 3165 3164 3165 3166 3165 3164 3165 3165 3167 3170 3173 3175 3177 3179 3181 3183 3184 3186 3188 3189 3189 3189 3189 3189 3188 3189 3191 3192 3193 3194 3194 3195 3196 3198 3200 3201 3202 3202
3163 3163 3164 3163 3165 3165 3167 3164 3164 3165 3167 3167 3167 3166 3165 3163 3163 3166 3169 3169 3170 3174 3177 3179 3181 3182 3184 3186 3188 3190 3191 3191 3191 3191 3190 3189 3190 3192 3194 3195 3196 3196 3197 3198 3200 3202 3203 3203 3204
3165 3165 3167 3168 3168 3166 3169 3166 3167 3167 3168 3167 3168 3167 3166 3164 3166 3168 3170 3171 3172 3175 3178 3181 3182 3184 3186 3188 3189 3191 3192 3193 3193 3193 3192 3193 3193 3194 3195 3196 3197 3198 3199 3200 3201 3203 3204 3205 3207
3167 3166 3167 3170 3170 3167 3168 3169 3170 3168 3167 3167 3167 3167 3166 3166 3167 3169 3171 3172 3174 3177 3179 3182 3183 3186 3188 3189 3191 3192 3193 3194 3195 3194 3195 3195 3196 3196 3197 3198 3199 3199 3200 3201 3203 3204 3205 3207 3208
3170 3169 3170 3171 3172 3170 3169 3171 3171 3169 3169 3168 3167 3167 3167 3166 3167 3168 3172 3173 3175 3179 3181 3183 3185 3186 3188 3190 3192 3193 3194 3195 3196 3196 3197 3197 3198 3198 3198 3200 3200 3200 3200 3202 3203 3204 3206 3208 3209
3171 3172 3172 3173 3171 3172 3171 3170 3169 3171 3169 3166 3166 3165 3165 3164 3167 3169 3171 3174 3176 3179 3182 3184 3186 3187 3189 3190 3192 3194 3195 3196 3196 3197 3198 3198 3199 3200 3199 3200 3201 3202 3202 3203 3204 3205 3207 3208 3210
3172 3173 3173 3176 3175 3175 3172 3172 3172 3170 3169 3166 3165 3165 3165 3164 3166 3168 3170 3174 3177 3179 3182 3185 3186 3189 3190 3191 3193 3195 3196 3196 3197 3198 3198 3199 3200 3200 3201 3201 3202 3203 3203 3204 3205 3206 3207 3209 3211
3175 3176 3174 3175 3174 3172 3172 3174 3172 3169 3170 3167 3165 3165 3166 3165 3165 3168 3170 3173 3176 3179 3182 3184 3187 3189 3191 3192 3194 3195 3196 3197 3197 3198 3199 3200 3200 3201 3202 3202 3202 3203 3204 3205 3205 3206 3208 3210 3211
3175 3175 3176 3176 3174 3173 3172 3172 3171 3171 3169 3168 3165 3165 3165 3166 3167 3170 3172 3174 3177 3180 3182 3184 3186 3188 3190 3192 3194 3195 3197 3198 3198 3199 3199 3199 3200 3201 3202 3203 3203 3204 3205 3206 3207 3207 3209 3211 3212
3173 3173 3174 3174 3173 3174 3174 3171 3171 3171 3170 3168 3168 3166 3165 3166 3168 3171 3173 3176 3179 3182 3182 3184 3186 3188 3190 3193 3194 3196 3197 3198 3199 3198 3198 3199 3201 3201 3201 3203 3204 3204 3206 3207 3207 3207 3208 3211 3212
3173 3171 3173 3175 3175 3175 3174 3174 3174 3172 3170 3169 3169 3168 3167 3168 3170 3171 3173 3176 3179 3181 3183 3184 3186 3188 3190 3192 3195 3196 3197 3198 3199 3199 3199 3200 3200 3201 3202 3203 3204 3205 3206 3207 3208 3208 3209 3210 3211
3173 3172 3174 3176 3175 3174 3175 3175 3174 3172 3170 3168 3168 3168 3168 3168 3171 3172 3175 3177 3178 3180 3183 3185 3186 3188 3190 3192 3194 3196 3197 3198 3199 3200 3200 3200 3201 3201 3201 3202 3204 3205 3206 3207 3208 3209 3209 3210 3211
3173 3171 3171 3173 3174 3174 3175 3175 3173 3170 3169 3168 3168 3168 3168 3168 3169 3171 3172 3175 3178 3179 3182 3183 3186 3188 3189 3191 3194 3196 3197 3198 3199 3200 3200 3201 3201 3201 3201 3203 3205 3206 3206 3206 3207 3209 3209 3210 3210
3172 3171 3171 3172 3173 3174 3174 3174 3172 3170 3169 3168 3167 3167 3168 3168 3169 3171 3173 3174 3177 3181 3182 3183 3185 3187 3189 3191 3193 3195 3197 3198 3198 3199 3200 3201 3202 3203 3203 3204 3204 3206 3206 3207 3207 3208 3208 3208 3209
3172 3172 3171 3171 3171 3172 3173 3170 3171 3171 3169 3169 3168 3167 3167 3169 3170 3170 3172 3174 3177 3180 3182 3183 3185 3187 3188 3189 3192 3194 3196 3197 3197 3198 3200 3201 3201 3202 3203 3204 3205 3205 3205 3207 3208 3207 3207 3205 3207
3172 3171 3170 3173 3173 3173 3173 3168 3168 3170 3169 3169 3168 3167 3167 3168 3169 3170 3170 3172 3175 3179 3180 3178 3182 3187 3188 3188 3190 3193 3195 3196 3197 3198 3199 3200 3201 3202 3202 3203 3204 3205 3205 3206 3206 3206 3206 3205 3206
3171 3171 3171 3170 3175 3176 3171 3166 3166 3167 3168 3168 3168 3166 3165 3166 3168 3169 3171 3170 3173 3176 3179 3180 3180 3183 3186 3186 3188 3190 3191 3193 3195 3197 3198 3199 3199 3200 3200 3201 3203 3203 3204 3206 3206 3206 3205 3204 3204
3171 3171 3170 3168 3169 3170 3164 3164 3164 3166 3166 3164 3164 3165 3164 3165 3168 3167 3169 3170 3170 3173 3177 3178 3179 3181 3183 3184 3185 3187 3189 3191 3192 3194 3195 3197 3197 3198 3199 3199 3201 3201 3202 3203 3204 3204 3204 3203 3204
3170 3169 3167 3165 3165 3166 3162 3161 3162 3163 3162 3161 3161 3162 3162 3163 3165 3167 3168 3168 3168 3170 3173 3176 3178 3179 3181 3182 3183 3185 3187 3188 3189 3191 3192 3193 3195 3196 3197 3198 3198 3199 3200 3201 3202 3202 3203 3202 3203
3167 3167 3165 3167 3161 3161 3159 3156 3157 3159 3159 3157 3157 3158 3160 3161 3163 3164 3166 3167 3168 3169 3172 3174 3177 3178 3179 3180 3181 3182 3183 3185 3186 3188 3190 3191 3192 3194 3194 3195 3196 3197 3198 3199 3199 3199 3200 3201 3202
3163 3164 3164 3162 3162 3160 3159 3157 3154 3154 3154 3154 3153 3155 3156 3158 3162 3162 3163 3165 3167 3169 3171 3172 3173 3174 3176 3177 3179 3180 3181 3183 3186 3187 3188 3189 3190 3191 3192 3193 3193 3195 3196 3197 3197 3198 3198 3198 3199
3159 3160 3160 3159 3158 3158 3156 3155 3152 3152 3151 3151 3150 3150 3153 3154 3159 3160 3161 3163 3165 3167 3168 3170 3170 3172 3174 3176 3178 3179 3179 3181 3182 3184 3186 3186 3188 3189 3190 3191 3192 3193 3194 3194 3195 3195 3195 3195 3195
3157 3157 3156 3155 3154 3154 3154 3154 3148 3148 3147 3147 3146 3148 3149 3150 3156 3158 3159 3161 3163 3165 3166 3167 3168 3170 3172 3173 3176 3177 3178 3179 3180 3181 3183 3185 3186 3187 3188 3189 3189 3190 3191 3191 3192 3191 3191 3192 3191
3155 3156 3154 3153 3153 3152 3151 3151 3147 3146 3144 3143 3143 3144 3145 3148 3152 3156 3158 3159 3161 3162 3165 3166 3167 3168 3171 3172 3173 3174 3175 3176 3177 3178 3179 3180 3182 3183 3185 3185 3185 3186 3186 3186 3186 3186 3187 3187 3186
3151 3152 3154 3154 3153 3147 3148 3147 3145 3144 3142 3141 3143 3144 3145 3147 3150 3154 3158 3159 3159 3161 3164 3165 3167 3168 3169 3170 3171 3172 3174 3174 3175 3175 3176 3176 3177 3178 3179 3180 3180 3181 3182 3181 3180 3179 3180 3180 3181
3146 3147 3147 3147 3147 3145 3145 3144 3143 3142 3141 3141 3142 3144 3146 3148 3150 3153 3156 3158 3159 3161 3162 3164 3165 3166 3167 3168 3169 3169 3168 3170 3171 3171 3171 3172 3173 3174 3174 3176 3176 3174 3176 3176 3176 3175 3175 3175 3176
3143 3144 3143 3142 3146 3147 3140 3140 3140 3140 3140 3142 3141 3141 3144 3146 3149 3153 3154 3157 3159 3160 3162 3163 3164 3165 3166 3165 3166 3166 3166 3166 3167 3167 3167 3167 3168 3168 3169 3171 3171 3170 3171 3170 3171 3170 3171 3171 3172
3140 3140 3140 3139 3138 3139 3142 3137 3138 3138 3137 3137 3137 3139 3140 3143 3146 3149 3152 3156 3157 3159 3161 3162 3163 3163 3164 3164 3164 3162 3162 3162 3162 3163 3164 3165 3164 3165 3165 3166 3165 3165 3167 3167 3167 3167 3167 3167 3168
3135 3135 3135 3133 3134 3134 3134 3133 3134 3134 3134 3133 3133 3135 3137 3139 3142 3146 3149 3153 3155 3156 3159 3161 3162 3162 3162 3162 3162 3161 3160 3160 3160 3160 3160 3161 3161 3161 3162 3163 3163 3163 3163 3162 3163 3164 3164 3165 3166